| time (UTC) | temp F | wind direction | speed MPH | gust MPH | rain 1hr in | rain 24hr in | rain mn in | humidity % | barometer mb |
| 20260505074104 | 62 | 0 | 0.0 | 0.0 | 0.00 | 0.00 | 0.00 | 66 | 1000.1 |
| 20260505073603 | 62 | 0 | 0.0 | 0.0 | 0.00 | 0.00 | 0.00 | 66 | 999.9 |
| 20260505073103 | 62 | 0 | 0.0 | 0.0 | 0.00 | 0.00 | 0.00 | 65 | 999.9 |
| 20260505072604 | 62 | 9 | 0.0 | 0.0 | 0.00 | 0.00 | 0.00 | 65 | 1000.0 |
| 20260505071603 | 62 | 1 | 0.0 | 0.0 | 0.00 | 0.00 | 0.00 | 65 | 1000.1 |
| 20260505071103 | 63 | 1 | 0.0 | 0.0 | 0.00 | 0.00 | 0.00 | 65 | 1000.2 |
| 20260505070604 | 62 | 1 | 0.0 | 0.0 | 0.00 | 0.00 | 0.00 | 65 | 1000.2 |
| 20260505070105 | 62 | 1 | 0.0 | 0.0 | 0.00 | 0.00 | 0.00 | 65 | 1000.3 |
| 20260505065604 | 62 | 1 | 0.0 | 0.0 | 0.00 | 0.00 | 0.00 | 66 | 1000.2 |
| 20260505064603 | 61 | 9 | 0.0 | 0.0 | 0.00 | 0.00 | 0.00 | 67 | 1000.1 |
| 20260505063604 | 61 | 0 | 0.0 | 0.0 | 0.00 | 0.00 | 0.00 | 67 | 1000.0 |
| 20260505063104 | 60 | 10 | 0.0 | 0.0 | 0.00 | 0.00 | 0.00 | 68 | 1000.0 |
| 20260505062104 | 60 | 12 | 0.0 | 0.0 | 0.00 | 0.00 | 0.00 | 68 | 1000.0 |
| 20260505061604 | 60 | 10 | 0.0 | 0.0 | 0.00 | 0.00 | 0.00 | 68 | 1000.1 |
| 20260505060104 | 59 | 1 | 0.0 | 0.0 | 0.00 | 0.00 | 0.00 | 68 | 1000.0 |
| 20260505055603 | 59 | 1 | 0.0 | 0.0 | 0.00 | 0.00 | 0.00 | 68 | 999.9 |
| 20260505054604 | 59 | 1 | 0.0 | 0.0 | 0.00 | 0.00 | 0.00 | 68 | 999.9 |
| 20260505054103 | 59 | 1 | 0.0 | 0.0 | 0.00 | 0.00 | 0.00 | 68 | 999.9 |
| 20260505053604 | 60 | 0 | 0.0 | 0.0 | 0.00 | 0.00 | 0.00 | 68 | 999.9 |
| 20260505053103 | 59 | 0 | 0.0 | 0.0 | 0.00 | 0.00 | 0.00 | 68 | 999.9 |
| 20260505052604 | 59 | 0 | 0.0 | 0.0 | 0.00 | 0.00 | 0.00 | 68 | 1000.0 |
| 20260505052104 | 59 | 0 | 0.0 | 0.0 | 0.00 | 0.00 | 0.00 | 68 | 999.9 |
| 20260505051604 | 59 | 10 | 0.0 | 0.0 | 0.00 | 0.00 | 0.00 | 68 | 999.8 |
| 20260505050104 | 59 | 0 | 0.0 | 0.0 | 0.00 | 0.00 | 0.00 | 67 | 1000.1 |
| 20260505041604 | 60 | 1 | 0.0 | 0.0 | 0.00 | 0.00 | 0.00 | 63 | 1000.2 |
| 20260505040604 | 60 | 10 | 0.0 | 0.0 | 0.00 | 0.00 | 0.00 | 62 | 1000.3 |
| 20260505040104 | 61 | 2 | 0.0 | 0.0 | 0.00 | 0.00 | 0.00 | 61 | 1000.2 |
| 20260505035604 | 61 | 0 | 0.0 | 0.0 | 0.00 | 0.00 | 0.00 | 60 | 1000.3 |
| 20260505034104 | 61 | 10 | 0.0 | 0.0 | 0.00 | 0.00 | 0.00 | 59 | 1000.3 |
| 20260505033603 | 61 | 9 | 0.0 | 0.0 | 0.00 | 0.00 | 0.00 | 58 | 1000.2 |
| 20260505033104 | 62 | 11 | 0.0 | 0.0 | 0.00 | 0.00 | 0.00 | 58 | 1000.4 |
| 20260505031103 | 62 | 0 | 0.0 | 0.0 | 0.00 | 0.00 | 0.00 | 56 | 1000.6 |
| 20260505030604 | 62 | 1 | 0.0 | 0.0 | 0.00 | 0.00 | 0.00 | 55 | 1000.6 |
| 20260505030104 | 62 | 1 | 0.0 | 0.0 | 0.00 | 0.00 | 0.00 | 55 | 1000.6 |
| 20260505025603 | 62 | 1 | 0.0 | 0.0 | 0.00 | 0.00 | 0.00 | 55 | 1000.7 |
| 20260505025104 | 62 | 10 | 0.0 | 0.0 | 0.00 | 0.00 | 0.00 | 55 | 1000.7 |
| 20260505024603 | 62 | 11 | 0.0 | 0.0 | 0.00 | 0.00 | 0.00 | 54 | 1000.7 |
| 20260505024104 | 62 | 10 | 0.0 | 0.0 | 0.00 | 0.00 | 0.00 | 54 | 1000.8 |
| 20260505023103 | 62 | 0 | 0.0 | 0.0 | 0.00 | 0.00 | 0.00 | 53 | 1000.8 |
| 20260505022604 | 62 | 9 | 0.0 | 0.0 | 0.00 | 0.00 | 0.00 | 53 | 1000.9 |
| 20260505022103 | 63 | 10 | 0.0 | 0.0 | 0.00 | 0.00 | 0.00 | 52 | 1001.0 |
| 20260505021103 | 63 | 0 | 0.0 | 0.0 | 0.00 | 0.00 | 0.00 | 52 | 1001.1 |
| 20260505020604 | 63 | 12 | 0.0 | 0.0 | 0.00 | 0.00 | 0.00 | 51 | 1001.1 |
| 20260505020104 | 63 | 10 | 0.0 | 0.0 | 0.00 | 0.00 | 0.00 | 50 | 1001.2 |
| 20260505015603 | 63 | 10 | 0.0 | 0.0 | 0.00 | 0.00 | 0.00 | 49 | 1001.2 |
| 20260505015103 | 63 | 9 | 0.0 | 0.0 | 0.00 | 0.00 | 0.00 | 49 | 1001.2 |
| 20260505014603 | 63 | 9 | 0.0 | 0.0 | 0.00 | 0.00 | 0.00 | 49 | 1001.1 |
| 20260505014103 | 63 | 12 | 0.0 | 0.0 | 0.00 | 0.00 | 0.00 | 49 | 1001.1 |
| 20260505013604 | 63 | 9 | 0.0 | 0.0 | 0.00 | 0.00 | 0.00 | 48 | 1001.2 |
| 20260505013103 | 63 | 8 | 0.0 | 0.0 | 0.00 | 0.00 | 0.00 | 47 | 1001.2 |
| 20260505012604 | 63 | 0 | 0.0 | 0.0 | 0.00 | 0.00 | 0.00 | 47 | 1001.2 |
| 20260505011603 | 64 | 11 | 0.0 | 0.0 | 0.00 | 0.00 | 0.00 | 46 | 1001.3 |
| 20260505011104 | 64 | 7 | 0.0 | 0.0 | 0.00 | 0.00 | 0.00 | 46 | 1001.3 |
| 20260505010603 | 64 | 12 | 0.0 | 0.0 | 0.00 | 0.01 | 0.00 | 46 | 1001.2 |
| 20260505010104 | 64 | 9 | 0.0 | 0.0 | 0.00 | 0.01 | 0.00 | 46 | 1001.1 |
| 20260505005604 | 64 | 9 | 0.0 | 0.0 | 0.00 | 0.01 | 0.00 | 46 | 1001.2 |
| 20260505005103 | 65 | 1 | 0.0 | 0.0 | 0.00 | 0.02 | 0.00 | 45 | 1001.2 |
| 20260505004104 | 65 | 11 | 0.0 | 0.0 | 0.00 | 0.02 | 0.00 | 45 | 1001.3 |
| 20260505003104 | 65 | 1 | 0.0 | 0.0 | 0.00 | 0.03 | 0.00 | 46 | 1001.3 |
| 20260505002603 | 65 | 0 | 0.0 | 0.0 | 0.00 | 0.03 | 0.00 | 46 | 1001.1 |
| 20260505002104 | 65 | 10 | 0.0 | 0.0 | 0.00 | 0.03 | 0.00 | 46 | 1001.1 |
| 20260505001603 | 65 | 8 | 0.0 | 0.0 | 0.00 | 0.04 | 0.00 | 47 | 1001.2 |
| 20260505001103 | 65 | 0 | 0.0 | 0.0 | 0.00 | 0.04 | 0.00 | 46 | 1001.2 |
| 20260505000604 | 65 | 0 | 0.0 | 0.0 | 0.00 | 0.05 | 0.00 | 47 | 1001.2 |
| 20260505000105 | 66 | 0 | 0.0 | 0.0 | 0.00 | 0.05 | 0.00 | 47 | 1001.3 |
| 20260504235603 | 66 | 0 | 0.0 | 0.0 | 0.00 | 0.06 | 0.00 | 46 | 1001.3 |
| 20260504235103 | 66 | 10 | 0.0 | 0.0 | 0.00 | 0.06 | 0.00 | 46 | 1001.3 |
| 20260504234604 | 66 | 8 | 0.0 | 0.0 | 0.00 | 0.06 | 0.00 | 46 | 1001.3 |
| 20260504234104 | 66 | 9 | 0.0 | 0.0 | 0.00 | 0.06 | 0.00 | 46 | 1001.4 |
| 20260504233603 | 66 | 10 | 0.0 | 0.0 | 0.00 | 0.06 | 0.00 | 46 | 1001.4 |
| 20260504233104 | 66 | 9 | 0.0 | 0.0 | 0.00 | 0.06 | 0.00 | 46 | 1001.4 |
| 20260504232604 | 66 | 0 | 0.0 | 0.0 | 0.00 | 0.06 | 0.00 | 47 | 1001.5 |
| 20260504232104 | 67 | 11 | 0.0 | 0.0 | 0.00 | 0.06 | 0.00 | 46 | 1001.6 |
| 20260504231603 | 67 | 1 | 0.0 | 0.0 | 0.00 | 0.06 | 0.00 | 46 | 1001.5 |
| 20260504231104 | 67 | 89 | 0.0 | 0.0 | 0.00 | 0.06 | 0.00 | 45 | 1001.5 |
| 20260504230604 | 67 | 9 | 0.0 | 0.0 | 0.00 | 0.06 | 0.00 | 44 | 1001.6 |
| 20260504230104 | 68 | 2 | 0.0 | 0.0 | 0.00 | 0.06 | 0.00 | 44 | 1001.6 |
| 20260504225604 | 68 | 1 | 0.0 | 0.0 | 0.00 | 0.06 | 0.00 | 43 | 1001.6 |
| 20260504224603 | 68 | 2 | 0.0 | 0.0 | 0.00 | 0.06 | 0.00 | 43 | 1001.6 |
| 20260504224104 | 69 | 1 | 0.0 | 0.0 | 0.00 | 0.06 | 0.00 | 43 | 1001.6 |
| 20260504223604 | 69 | 0 | 0.0 | 0.0 | 0.00 | 0.06 | 0.00 | 43 | 1001.5 |
| 20260504223104 | 69 | 0 | 0.0 | 0.0 | 0.00 | 0.06 | 0.00 | 44 | 1001.6 |
| 20260504222604 | 70 | 12 | 0.0 | 0.0 | 0.00 | 0.06 | 0.00 | 44 | 1001.4 |
| 20260504222104 | 70 | 10 | 0.0 | 0.0 | 0.00 | 0.06 | 0.00 | 43 | 1001.4 |
| 20260504221604 | 70 | 9 | 0.0 | 0.0 | 0.00 | 0.07 | 0.00 | 42 | 1001.4 |
| 20260504221104 | 70 | 9 | 0.0 | 0.0 | 0.00 | 0.08 | 0.00 | 42 | 1001.3 |
| 20260504220104 | 71 | 10 | 0.0 | 0.0 | 0.00 | 0.08 | 0.00 | 35 | 1001.2 |
| 20260504215604 | 71 | 11 | 0.0 | 0.0 | 0.00 | 0.08 | 0.00 | 35 | 1001.1 |
| 20260504214103 | 71 | 0 | 0.0 | 0.0 | 0.00 | 0.08 | 0.00 | 35 | 1001.2 |
| 20260504213603 | 71 | 0 | 0.0 | 0.0 | 0.00 | 0.08 | 0.00 | 35 | 1001.1 |
| 20260504213103 | 71 | 0 | 0.0 | 0.0 | 0.00 | 0.08 | 0.00 | 38 | 1001.1 |
| 20260504212604 | 71 | 12 | 0.0 | 0.0 | 0.00 | 0.08 | 0.00 | 38 | 1001.1 |
| 20260504212104 | 71 | 8 | 0.0 | 0.0 | 0.00 | 0.08 | 0.00 | 36 | 1001.2 |
| 20260504211604 | 72 | 11 | 0.0 | 0.0 | 0.00 | 0.08 | 0.00 | 36 | 1001.2 |
| 20260504211103 | 72 | 7 | 0.0 | 0.0 | 0.00 | 0.08 | 0.00 | 37 | 1001.1 |
| 20260504210604 | 72 | 0 | 0.0 | 0.0 | 0.00 | 0.08 | 0.00 | 37 | 1001.1 |
| 20260504210104 | 72 | 0 | 0.0 | 0.0 | 0.00 | 0.09 | 0.00 | 35 | 1001.1 |
| 20260504205104 | 72 | 0 | 0.0 | 0.0 | 0.00 | 0.09 | 0.00 | 37 | 1001.2 |
| 20260504203603 | 73 | 8 | 0.0 | 0.0 | 0.00 | 0.09 | 0.00 | 35 | 1001.2 |
| 20260504203104 | 73 | 2 | 0.0 | 0.0 | 0.00 | 0.09 | 0.00 | 34 | 1001.3 |
| 20260504202103 | 74 | 1 | 0.0 | 0.0 | 0.00 | 0.09 | 0.00 | 35 | 1001.4 |
| 20260504201604 | 74 | 1 | 0.0 | 0.0 | 0.00 | 0.09 | 0.00 | 35 | 1001.5 |
| 20260504201104 | 74 | 2 | 0.0 | 0.0 | 0.00 | 0.09 | 0.00 | 35 | 1001.5 |
| 20260504200603 | 73 | 1 | 0.0 | 0.0 | 0.00 | 0.09 | 0.00 | 37 | 1001.5 |
| 20260504195603 | 72 | 2 | 0.0 | 0.0 | 0.00 | 0.09 | 0.00 | 38 | 1001.6 |
| 20260504195104 | 71 | 1 | 0.0 | 0.0 | 0.00 | 0.09 | 0.00 | 38 | 1001.7 |
| 20260504194604 | 71 | 1 | 0.0 | 0.0 | 0.00 | 0.09 | 0.00 | 39 | 1001.6 |
| 20260504194104 | 71 | 0 | 0.0 | 0.0 | 0.00 | 0.09 | 0.00 | 40 | 1001.8 |
| 20260504193604 | 72 | 0 | 0.0 | 0.0 | 0.00 | 0.09 | 0.00 | 38 | 1001.9 |
| 20260504192104 | 73 | 12 | 0.0 | 0.0 | 0.00 | 0.09 | 0.00 | 39 | 1002.1 |
| 20260504191604 | 73 | 2 | 0.0 | 0.0 | 0.00 | 0.09 | 0.00 | 40 | 1002.1 |
| 20260504191104 | 73 | 1 | 0.0 | 0.0 | 0.00 | 0.09 | 0.00 | 40 | 1002.3 |
| 20260504190604 | 73 | 1 | 0.0 | 0.0 | 0.00 | 0.09 | 0.00 | 39 | 1002.3 |
| 20260504190104 | 72 | 2 | 0.0 | 0.0 | 0.00 | 0.09 | 0.00 | 40 | 1002.3 |
| 20260504185604 | 71 | 1 | 0.0 | 0.0 | 0.00 | 0.09 | 0.00 | 42 | 1002.3 |
| 20260504185103 | 72 | 2 | 0.0 | 0.0 | 0.00 | 0.09 | 0.00 | 41 | 1002.4 |
| 20260504184603 | 72 | 2 | 0.0 | 0.0 | 0.00 | 0.09 | 0.00 | 41 | 1002.4 |
| 20260504184104 | 71 | 1 | 0.0 | 0.0 | 0.00 | 0.09 | 0.00 | 41 | 1002.5 |
| 20260504183604 | 71 | 0 | 0.0 | 0.0 | 0.00 | 0.09 | 0.00 | 42 | 1002.5 |
| 20260504183104 | 71 | 0 | 0.0 | 0.0 | 0.00 | 0.09 | 0.00 | 41 | 1002.6 |
| 20260504182605 | 71 | 0 | 0.0 | 0.0 | 0.00 | 0.09 | 0.00 | 42 | 1002.7 |
| 20260504182104 | 71 | 8 | 0.0 | 0.0 | 0.00 | 0.09 | 0.00 | 42 | 1002.7 |
| 20260504180604 | 71 | 11 | 0.0 | 0.0 | 0.00 | 0.09 | 0.00 | 42 | 1002.8 |
| 20260504180105 | 72 | 10 | 0.0 | 0.0 | 0.00 | 0.09 | 0.00 | 42 | 1002.9 |
| 20260504175603 | 72 | 9 | 0.0 | 0.0 | 0.00 | 0.09 | 0.00 | 43 | 1003.0 |
| 20260504175103 | 72 | 9 | 0.0 | 0.0 | 0.00 | 0.09 | 0.00 | 41 | 1003.0 |
| 20260504174603 | 72 | 9 | 0.0 | 0.0 | 0.00 | 0.09 | 0.00 | 44 | 1003.1 |
| 20260504174103 | 71 | 0 | 0.0 | 0.0 | 0.00 | 0.09 | 0.00 | 42 | 1003.1 |
| 20260504173103 | 70 | 0 | 0.0 | 0.0 | 0.00 | 0.09 | 0.00 | 43 | 1003.1 |
| 20260504172604 | 70 | 2 | 0.0 | 0.0 | 0.00 | 0.09 | 0.00 | 45 | 1003.3 |
| 20260504171604 | 71 | 1 | 0.0 | 0.0 | 0.00 | 0.09 | 0.00 | 46 | 1003.4 |
| 20260504171104 | 71 | 1 | 0.0 | 0.0 | 0.00 | 0.09 | 0.00 | 47 | 1003.5 |
| 20260504170603 | 71 | 1 | 0.0 | 0.0 | 0.00 | 0.09 | 0.00 | 47 | 1003.6 |
| 20260504170104 | 71 | 2 | 0.0 | 0.0 | 0.00 | 0.09 | 0.00 | 47 | 1003.8 |
| 20260504160104 | 68 | 10 | 0.0 | 0.0 | 0.00 | 0.09 | 0.00 | 50 | 1004.5 |
| 20260504151103 | 65 | 1 | 0.0 | 0.0 | 0.00 | 0.09 | 0.00 | 52 | 1005.0 |
| 20260504150603 | 65 | 1 | 0.0 | 0.0 | 0.00 | 0.09 | 0.00 | 52 | 1005.0 |
| 20260504150104 | 65 | 2 | 0.0 | 0.0 | 0.00 | 0.09 | 0.00 | 54 | 1005.0 |
| 20260504140604 | 61 | 0 | 0.0 | 0.0 | 0.00 | 0.09 | 0.00 | 57 | 1005.2 |
| 20260504140105 | 60 | 89 | 0.0 | 0.0 | 0.00 | 0.09 | 0.00 | 57 | 1005.2 |
| 20260504130604 | 56 | 0 | 0.0 | 0.0 | 0.00 | 0.09 | 0.00 | 60 | 1005.7 |
| 20260504130105 | 56 | 0 | 0.0 | 0.0 | 0.00 | 0.09 | 0.00 | 60 | 1005.7 |
| 20260504120104 | 51 | 11 | 0.0 | 0.0 | 0.00 | 0.09 | 0.00 | 69 | 1005.8 |
| 20260504110603 | 47 | 11 | 0.0 | 0.0 | 0.00 | 0.09 | 0.00 | 78 | 1005.7 |
| 20260504110104 | 46 | 10 | 0.0 | 0.0 | 0.00 | 0.09 | 0.00 | 79 | 1005.8 |
| 20260504100603 | 46 | 10 | 0.0 | 0.0 | 0.00 | 0.09 | 0.00 | 78 | 1005.7 |
| 20260504100104 | 46 | 10 | 0.0 | 0.0 | 0.00 | 0.09 | 0.00 | 78 | 1005.7 |
| 20260504090104 | 47 | 1 | 0.0 | 0.0 | 0.00 | 0.09 | 0.00 | 77 | 1006.1 |
| 20260504081605 | 48 | 11 | 0.0 | 0.0 | 0.00 | 0.09 | 0.00 | 77 | 1006.6 |
| 20260504081103 | 48 | 11 | 0.0 | 0.0 | 0.00 | 0.09 | 0.00 | 77 | 1006.6 |
| 20260504080104 | 48 | 1 | 0.0 | 0.0 | 0.00 | 0.09 | 0.00 | 78 | 1006.4 |